| time (UTC) | temp F | wind direction | speed knots | gust knots | rain 1hr in | rain 24hr in | rain mn in | humidity % | barometer mb |
| 20260507200058 | 84 | 70 | 4.3 | 8.7 | 0.00 | 0.00 | 0.00 | 63 | 1015.2 |
| 20260507194602 | 84 | 81 | 2.6 | 9.6 | 0.00 | 0.00 | 0.00 | 61 | 1015.2 |
| 20260507193055 | 84 | 47 | 4.3 | 10.4 | 0.00 | 0.00 | 0.00 | 61 | 1015.4 |
| 20260507191614 | 85 | 75 | 2.6 | 10.4 | 0.00 | 0.00 | 0.00 | 58 | 1015.5 |
| 20260507190053 | 86 | 49 | 2.6 | 8.7 | 0.00 | 0.00 | 0.00 | 59 | 1015.5 |
| 20260507184558 | 85 | 49 | 6.1 | 13.0 | 0.00 | 0.00 | 0.00 | 53 | 1015.6 |
| 20260507183050 | 86 | 29 | 4.3 | 9.6 | 0.00 | 0.00 | 0.00 | 55 | 1015.5 |
| 20260507181547 | 86 | 73 | 6.1 | 11.3 | 0.00 | 0.00 | 0.00 | 56 | 1015.6 |
| 20260507180045 | 86 | 63 | 5.2 | 10.4 | 0.00 | 0.00 | 0.00 | 56 | 1015.8 |
| 20260507174545 | 86 | 59 | 3.5 | 11.3 | 0.00 | 0.00 | 0.00 | 57 | 1015.8 |
| 20260507173041 | 86 | 67 | 6.1 | 14.8 | 0.00 | 0.00 | 0.00 | 56 | 1016.3 |
| 20260507171547 | 84 | 75 | 5.2 | 10.4 | 0.00 | 0.00 | 0.00 | 59 | 1016.5 |
| 20260507170037 | 85 | 90 | 2.6 | 12.2 | 0.00 | 0.00 | 0.00 | 64 | 1016.8 |
| 20260507164547 | 84 | 101 | 3.5 | 13.0 | 0.00 | 0.00 | 0.00 | 63 | 1017.0 |
| 20260507163037 | 85 | 98 | 3.5 | 10.4 | 0.00 | 0.00 | 0.00 | 61 | 1017.2 |
| 20260507161539 | 86 | 8 | 2.6 | 12.2 | 0.00 | 0.00 | 0.00 | 63 | 1017.2 |
| 20260507160035 | 86 | 89 | 2.6 | 9.6 | 0.00 | 0.00 | 0.00 | 62 | 1017.2 |
| 20260507154531 | 86 | 112 | 6.1 | 13.9 | 0.00 | 0.00 | 0.00 | 61 | 1017.3 |
| 20260507153031 | 87 | 94 | 6.1 | 11.3 | 0.00 | 0.00 | 0.00 | 61 | 1017.3 |
| 20260507151526 | 87 | 94 | 1.7 | 10.4 | 0.00 | 0.00 | 0.00 | 63 | 1017.3 |
| 20260507150025 | 85 | 75 | 5.2 | 11.3 | 0.00 | 0.00 | 0.00 | 64 | 1017.3 |
| 20260507144522 | 85 | 70 | 4.3 | 13.0 | 0.00 | 0.02 | 0.00 | 64 | 1017.4 |
| 20260507143037 | 84 | 66 | 5.2 | 10.4 | 0.00 | 0.02 | 0.00 | 64 | 1017.6 |
| 20260507141519 | 84 | 73 | 3.5 | 10.4 | 0.00 | 0.02 | 0.00 | 65 | 1017.6 |
| 20260507140020 | 84 | 72 | 6.1 | 9.6 | 0.00 | 0.02 | 0.00 | 64 | 1017.6 |
| 20260507134517 | 83 | 46 | 4.3 | 7.8 | 0.00 | 0.02 | 0.00 | 67 | 1017.8 |
| 20260507133014 | 84 | 52 | 4.3 | 11.3 | 0.00 | 0.02 | 0.00 | 67 | 1017.8 |
| 20260507131512 | 83 | 72 | 3.5 | 9.6 | 0.00 | 0.02 | 0.00 | 67 | 1017.9 |
| 20260507130028 | 84 | 41 | 1.7 | 9.6 | 0.00 | 0.02 | 0.00 | 66 | 1018.0 |
| 20260507124507 | 83 | 70 | 4.3 | 9.6 | 0.00 | 0.02 | 0.00 | 69 | 1017.8 |
| 20260507123005 | 82 | 97 | 2.6 | 7.8 | 0.00 | 0.02 | 0.00 | 69 | 1017.8 |
| 20260507121504 | 82 | 101 | 2.6 | 10.4 | 0.00 | 0.02 | 0.00 | 70 | 1017.8 |
| 20260507114600 | 82 | 80 | 1.7 | 5.2 | 0.00 | 0.02 | 0.00 | 74 | 1017.6 |
| 20260507113056 | 81 | 58 | 1.7 | 7.0 | 0.00 | 0.02 | 0.00 | 75 | 1017.5 |
| 20260507111553 | 80 | 84 | 3.5 | 6.1 | 0.00 | 0.02 | 0.00 | 77 | 1017.5 |
| 20260507110052 | 80 | 56 | 1.7 | 5.2 | 0.00 | 0.02 | 0.00 | 79 | 1017.6 |
| 20260507104554 | 79 | 51 | 0.9 | 3.5 | 0.00 | 0.02 | 0.00 | 80 | 1017.6 |
| 20260507103048 | 77 | 111 | 0.9 | 3.5 | 0.00 | 0.02 | 0.00 | 83 | 1017.5 |
| 20260507101548 | 0 | 0.0 | 0.0 | 0.00 | 0.02 | 0.00 | 1017.4 | ||
| 20260507100055 | 0 | 0.0 | 0.0 | 0.00 | 0.02 | 0.00 | 1017.2 | ||
| 20260507094549 | 0 | 0.0 | 0.0 | 0.00 | 0.02 | 0.00 | 1017.2 | ||
| 20260507093046 | 0 | 0.0 | 0.0 | 0.00 | 0.02 | 0.00 | 1017.1 | ||
| 20260507091547 | 0 | 0.0 | 0.0 | 0.00 | 0.02 | 0.00 | 1017.0 | ||
| 20260507090056 | 0 | 0.0 | 0.0 | 0.00 | 0.02 | 0.00 | 1017.0 | ||
| 20260507084552 | 0 | 0.0 | 0.0 | 0.00 | 0.02 | 0.00 | 1016.8 | ||
| 20260507083045 | 0 | 0.0 | 0.0 | 0.00 | 0.02 | 0.00 | 1016.8 | ||
| 20260507081552 | 0 | 0.0 | 0.0 | 0.00 | 0.02 | 0.00 | 1016.8 | ||
| 20260507080047 | 0 | 0.0 | 0.0 | 0.00 | 0.02 | 0.00 | 1016.8 | ||
| 20260507074544 | 0 | 0.0 | 0.0 | 0.00 | 0.02 | 0.00 | 1016.8 | ||
| 20260507073042 | 0 | 0.0 | 0.0 | 0.00 | 0.02 | 0.00 | 1016.7 | ||
| 20260507071538 | 0 | 0.0 | 0.0 | 0.00 | 0.02 | 0.00 | 1016.8 | ||
| 20260507070036 | 0 | 0.0 | 0.0 | 0.00 | 0.02 | 0.00 | 1016.8 | ||
| 20260507064546 | 0 | 0.0 | 0.0 | 0.00 | 0.02 | 0.00 | 1017.0 | ||
| 20260507063024 | 0 | 0.0 | 0.0 | 0.00 | 0.02 | 0.00 | 1017.1 | ||
| 20260507061519 | 0 | 0.0 | 0.0 | 0.00 | 0.02 | 0.00 | 1017.2 | ||
| 20260507060016 | 0 | 0.0 | 0.0 | 0.00 | 0.02 | 0.00 | 1017.5 | ||
| 20260507054510 | 0 | 0.0 | 0.0 | 0.00 | 0.02 | 0.00 | 1017.6 | ||
| 20260507053007 | 0 | 0.0 | 0.0 | 0.00 | 0.02 | 0.00 | 1017.7 | ||
| 20260507051502 | 0 | 0.0 | 0.0 | 0.00 | 0.02 | 0.00 | 1017.7 | ||
| 20260507050057 | 0 | 0.0 | 0.0 | 0.00 | 0.02 | 0.00 | 1017.9 | ||
| 20260507044557 | 76 | 107 | 0.9 | 2.6 | 0.00 | 0.03 | 0.00 | 81 | 1018.1 |
| 20260507043052 | 76 | 101 | 0.0 | 2.6 | 0.00 | 0.03 | 0.00 | 81 | 1018.3 |
| 20260507041550 | 76 | 77 | 0.9 | 3.5 | 0.00 | 0.03 | 0.00 | 81 | 1018.6 |
| 20260507040045 | 76 | 93 | 0.9 | 2.6 | 0.00 | 0.03 | 0.00 | 81 | 1018.8 |
| 20260507034545 | 77 | 92 | 0.9 | 4.3 | 0.00 | 0.03 | 0.03 | 81 | 1019.0 |
| 20260507033045 | 77 | 105 | 0.9 | 3.5 | 0.00 | 0.03 | 0.03 | 81 | 1019.1 |
| 20260507031545 | 77 | 77 | 0.9 | 2.6 | 0.00 | 0.03 | 0.03 | 81 | 1019.3 |
| 20260507030042 | 77 | 129 | 0.9 | 2.6 | 0.00 | 0.03 | 0.03 | 81 | 1019.3 |
| 20260507024543 | 77 | 101 | 0.0 | 2.6 | 0.00 | 0.04 | 0.03 | 81 | 1019.3 |
| 20260507023044 | 77 | 81 | 0.9 | 3.5 | 0.00 | 0.04 | 0.03 | 81 | 1019.3 |
| 20260507021544 | 77 | 88 | 0.9 | 3.5 | 0.00 | 0.04 | 0.03 | 81 | 1019.2 |
| 20260507020053 | 77 | 113 | 0.9 | 3.5 | 0.00 | 0.04 | 0.03 | 81 | 1019.1 |
| 20260507014546 | 77 | 115 | 0.9 | 4.3 | 0.00 | 0.04 | 0.03 | 80 | 1019.0 |
| 20260507013042 | 77 | 77 | 0.9 | 4.3 | 0.00 | 0.04 | 0.03 | 80 | 1018.9 |
| 20260507011541 | 77 | 87 | 0.9 | 3.5 | 0.00 | 0.04 | 0.03 | 80 | 1018.7 |
| 20260507010055 | 78 | 67 | 0.9 | 4.3 | 0.00 | 0.04 | 0.03 | 80 | 1018.5 |
| 20260507004538 | 77 | 128 | 0.9 | 3.5 | 0.00 | 0.04 | 0.03 | 80 | 1018.7 |
| 20260507003039 | 78 | 76 | 1.7 | 3.5 | 0.00 | 0.04 | 0.03 | 80 | 1018.5 |
| 20260507001536 | 78 | 72 | 0.9 | 4.3 | 0.00 | 0.04 | 0.03 | 79 | 1018.3 |
| 20260506234534 | 78 | 120 | 0.9 | 5.2 | 0.00 | 0.04 | 0.03 | 78 | 1018.0 |
| 20260506233034 | 78 | 103 | 0.9 | 3.5 | 0.00 | 0.04 | 0.03 | 78 | 1017.8 |
| 20260506231533 | 79 | 115 | 0.9 | 3.5 | 0.00 | 0.04 | 0.03 | 77 | 1017.7 |
| 20260506230036 | 79 | 136 | 0.9 | 3.5 | 0.00 | 0.04 | 0.03 | 75 | 1017.5 |
| 20260506224537 | 80 | 127 | 0.9 | 4.3 | 0.00 | 0.04 | 0.03 | 74 | 1017.3 |
| 20260506223031 | 80 | 115 | 2.6 | 7.0 | 0.00 | 0.04 | 0.03 | 74 | 1017.0 |
| 20260506221531 | 81 | 76 | 1.7 | 6.1 | 0.00 | 0.04 | 0.03 | 73 | 1016.8 |
| 20260506220036 | 81 | 90 | 3.5 | 8.7 | 0.00 | 0.04 | 0.03 | 71 | 1016.8 |
| 20260506214531 | 82 | 116 | 3.5 | 7.8 | 0.00 | 0.04 | 0.03 | 69 | 1016.9 |
| 20260506213029 | 82 | 61 | 4.3 | 9.6 | 0.00 | 0.04 | 0.03 | 69 | 1016.8 |
| 20260506211530 | 83 | 145 | 4.3 | 8.7 | 0.00 | 0.04 | 0.03 | 67 | 1016.6 |
| 20260506210031 | 83 | 86 | 3.5 | 10.4 | 0.00 | 0.04 | 0.03 | 66 | 1016.6 |
| 20260506204532 | 84 | 119 | 3.5 | 9.6 | 0.00 | 0.04 | 0.03 | 63 | 1016.6 |
| 20260506203025 | 85 | 125 | 4.3 | 8.7 | 0.00 | 0.04 | 0.03 | 59 | 1016.6 |
| 20260506201535 | 85 | 139 | 3.5 | 11.3 | 0.00 | 0.04 | 0.03 | 61 | 1016.6 |